Date String (YYYY-MM-DD hh:mm:ss) UTC,Instrument flags,Ambient pressure (hPa),Sample flow (lpm),Bypass flow (lpm),Sample temperature (°C),Ambient temperature (°C),ASC tube jacket temperature (°C),LED temperature (°C),Box temperature (°C),Sample RH (%),Span deviation,Mass concentration (μg/m³),Mass concentration (μg/m³),Mass concentration (μg/m³)
DateTimeUTC,F1_M11,P_M11,Q1_M11,Q2_M11,T1_M11,T2_M11,T3_M11,T4_M11,T5_M11,U1_M11,ZSPAN_M11,X0_M11,X2_M11,X1_M11
2022-12-13 18:00:00,,0809.5,4.99,0.00,20.5,18.9,00.0,29.4,21.8,09.7,0000.6,0017.25,0005.95,0004.82
2022-12-13 18:01:00,,0809.5,5.03,0.00,20.4,18.2,00.0,29.4,21.6,09.8,0000.0,0016.80,0005.94,0004.83
2022-12-13 18:02:00,,0809.5,4.97,0.00,20.3,18.3,00.0,29.4,21.5,09.9,0000.0,0017.09,0005.98,0004.83
2022-12-13 18:03:00,,0809.6,5.02,0.00,20.4,19.9,00.0,29.3,21.9,09.9,0000.0,0017.66,0006.07,0004.83
2022-12-13 18:04:00,,0809.6,5.00,0.00,20.5,21.2,00.0,29.3,22.2,09.9,0000.0,0016.22,0006.09,0004.83
2022-12-13 18:05:00,,0809.6,4.99,0.00,20.6,21.1,00.0,29.4,22.3,09.8,0000.4,0013.80,0006.11,0004.83
2022-12-13 18:06:00,,0809.5,5.01,0.00,20.6,20.2,00.0,29.4,22.1,09.8,0001.2,0014.15,0006.12,0004.81
2022-12-13 18:07:00,,0809.5,4.98,0.00,20.5,19.3,00.0,29.4,21.9,09.7,0001.9,0016.13,0006.10,0004.80
2022-12-13 18:08:00,,0809.5,5.04,0.00,20.4,18.7,00.0,29.4,21.7,09.8,0001.8,0017.54,0006.17,0004.79
2022-12-13 18:09:00,,0809.6,4.96,0.00,20.3,18.9,00.0,29.3,21.7,10.0,0001.8,0019.14,0006.23,0004.76
2022-12-13 18:10:00,,0809.7,5.02,0.00,20.5,20.3,00.0,29.3,22.0,09.9,0000.0,0019.39,0006.23,0004.74
2022-12-13 18:11:00,,0809.7,4.98,0.00,20.6,21.3,00.0,29.4,22.3,09.9,0001.3,0018.15,0006.17,0004.73
2022-12-13 18:12:00,,0809.7,5.02,0.00,20.7,20.9,00.0,29.4,22.4,09.9,0001.4,0018.49,0006.15,0004.73
2022-12-13 18:13:00,,0809.7,4.97,0.00,20.6,19.9,00.0,29.4,22.1,09.8,0001.3,0019.18,0006.21,0004.73
2022-12-13 18:14:00,,0809.6,5.02,0.00,20.5,18.9,00.0,29.4,21.8,09.9,0001.1,0018.47,0006.14,0004.73
2022-12-13 18:15:00,,0809.6,5.00,0.00,20.4,18.2,00.0,29.4,21.6,10.0,0000.5,0018.63,0006.13,0004.72
2022-12-13 18:16:00,,0809.7,4.97,0.00,20.3,18.5,00.0,29.3,21.6,10.0,0000.4,0018.96,0006.12,0004.72
2022-12-13 18:17:00,,0809.7,5.04,0.00,20.4,20.1,00.0,29.3,22.0,10.1,0000.1,0019.36,0006.09,0004.72
2022-12-13 18:18:00,,0809.7,4.98,0.00,20.5,21.3,00.0,29.3,22.3,10.0,0000.0,0018.31,0006.07,0004.71
2022-12-13 18:19:00,,0809.7,4.98,0.00,20.6,20.9,00.0,29.4,22.3,10.0,0000.6,0017.23,0006.05,0004.71
2022-12-13 18:20:00,,0809.7,5.02,0.00,20.6,20.0,00.0,29.4,22.1,10.0,0000.4,0015.69,0005.99,0004.69
2022-12-13 18:21:00,,0809.8,5.01,0.00,20.5,19.3,00.0,29.4,21.9,10.1,0000.7,0015.04,0005.97,0004.67
2022-12-13 18:22:00,,0809.7,4.99,0.00,20.4,18.7,00.0,29.4,21.8,10.0,0000.7,0016.00,0005.98,0004.66
2022-12-13 18:23:00,,0809.7,4.99,0.00,20.3,18.4,00.0,29.4,21.6,10.1,0000.9,0016.03,0005.93,0004.62
2022-12-13 18:24:00,,0809.7,5.03,0.00,20.4,19.7,00.0,29.3,21.9,10.1,0001.1,0015.44,0005.86,0004.61
2022-12-13 18:25:00,,0809.7,5.00,0.00,20.5,20.9,00.0,29.3,22.2,10.1,0000.2,0016.00,0005.83,0004.61
2022-12-13 18:26:00,,0809.7,4.99,0.00,20.7,21.3,00.0,29.4,22.4,10.1,0000.3,0016.26,0005.80,0004.61
2022-12-13 18:27:00,,0809.7,5.02,0.00,20.7,20.5,00.0,29.4,22.3,10.1,0000.0,0017.22,0005.79,0004.61
2022-12-13 18:28:00,,0809.7,4.98,0.00,20.6,19.6,00.0,29.4,22.0,10.1,0000.0,0016.52,0005.75,0004.61
2022-12-13 18:29:00,,0809.7,5.00,0.00,20.5,18.9,00.0,29.4,21.9,10.2,0000.0,0015.72,0005.77,0004.61
2022-12-13 18:30:00,,0809.8,5.03,0.00,20.4,18.3,00.0,29.4,21.7,10.3,0000.0,0015.27,0005.72,0004.61
2022-12-13 18:31:00,,0809.9,4.97,0.00,20.4,18.8,00.0,29.3,21.7,10.4,0000.0,0015.53,0005.73,0004.62
2022-12-13 18:32:00,,0809.9,5.02,0.00,20.5,20.3,00.0,29.3,22.1,10.3,0000.0,0017.00,0005.76,0004.63
2022-12-13 18:33:00,,0809.9,4.98,0.00,20.6,21.3,00.0,29.4,22.4,10.2,0000.0,0017.04,0005.77,0004.64
2022-12-13 18:34:00,,0809.9,5.00,0.00,20.7,20.8,00.0,29.4,22.4,10.2,0000.0,0016.88,0005.81,0004.65
2022-12-13 18:35:00,,0809.9,5.01,0.00,20.6,20.0,00.0,29.4,22.1,10.1,0000.0,0016.85,0005.77,0004.65
2022-12-13 18:36:00,,0809.9,5.00,0.00,20.5,19.2,00.0,29.4,21.9,10.2,0000.0,0016.50,0005.72,0004.64
2022-12-13 18:37:00,,0809.9,4.98,0.00,20.5,18.5,00.0,29.4,21.7,10.3,0000.0,0016.46,0005.72,0004.63
2022-12-13 18:38:00,,0809.9,4.99,0.00,20.4,19.0,00.0,29.4,21.8,10.3,0000.0,0016.72,0005.76,0004.61
2022-12-13 18:39:00,,0809.9,5.02,0.00,20.5,20.5,00.0,29.3,22.2,10.2,0000.0,0017.44,0005.77,0004.60
2022-12-13 18:40:00,,0809.9,4.97,0.00,20.7,21.5,00.0,29.4,22.5,10.1,0000.0,0017.84,0005.83,0004.59
2022-12-13 18:41:00,,0809.9,5.03,0.00,20.7,21.0,00.0,29.4,22.4,10.1,0000.0,0017.84,0005.81,0004.57
2022-12-13 18:42:00,,0809.9,4.97,0.00,20.7,20.1,00.0,29.5,22.2,10.1,0000.0,0017.89,0005.84,0004.58
2022-12-13 18:43:00,,0809.9,5.03,0.00,20.6,19.4,00.0,29.5,22.0,10.1,0000.0,0017.31,0005.85,0004.58
2022-12-13 18:44:00,,0810.0,4.96,0.00,20.5,18.8,00.0,29.5,21.8,10.1,0000.0,0018.33,0005.87,0004.58
2022-12-13 18:45:00,,0809.9,5.05,0.00,20.4,18.7,00.0,29.4,21.7,10.1,0000.0,0018.63,0005.89,0004.60
2022-12-13 18:46:00,,0809.9,4.97,0.00,20.5,20.1,00.0,29.4,22.1,10.1,0000.0,0018.45,0005.92,0004.61
2022-12-13 18:47:00,,0810.0,5.03,0.00,20.7,21.4,00.0,29.4,22.5,10.0,0000.0,0018.76,0005.96,0004.62
2022-12-13 18:48:00,,0810.0,4.98,0.00,20.8,21.6,00.0,29.5,22.6,09.9,0000.0,0019.36,0006.05,0004.64
2022-12-13 18:49:00,,0810.0,5.01,0.00,20.8,20.5,00.0,29.5,22.3,09.9,0000.0,0019.07,0006.04,0004.64
2022-12-13 18:50:00,,0810.0,4.97,0.00,20.7,19.6,00.0,29.5,22.1,09.9,0000.0,0017.49,0006.08,0004.64
2022-12-13 18:51:00,,0810.0,5.05,0.00,20.6,18.8,00.0,29.5,21.9,10.0,0000.0,0018.25,0006.09,0004.66
2022-12-13 18:52:00,,0810.0,4.98,0.00,20.5,18.3,00.0,29.5,21.7,10.0,0000.0,0018.82,0006.12,0004.68
2022-12-13 18:53:00,,0810.1,4.98,0.00,20.4,18.2,00.0,29.4,21.7,10.2,0000.0,0019.30,0006.16,0004.69
2022-12-13 18:54:00,,0810.1,5.02,0.00,20.5,19.7,00.0,29.4,22.0,10.2,0000.0,0019.98,0006.16,0004.70
2022-12-13 18:55:00,,0810.1,4.99,0.00,20.6,21.0,00.0,29.4,22.3,10.3,0000.6,0019.42,0006.13,0004.71
2022-12-13 18:56:00,,0810.1,4.99,0.00,20.7,21.3,00.0,29.5,22.5,10.4,0000.7,0018.90,0006.12,0004.73
2022-12-13 18:57:00,,0810.1,5.02,0.00,20.7,20.5,00.0,29.5,22.3,10.4,0000.7,0019.72,0006.10,0004.73
2022-12-13 18:58:00,,0810.1,5.01,0.00,20.7,19.8,00.0,29.5,22.1,10.6,0000.5,0019.59,0006.10,0004.76
2022-12-13 18:59:00,,0810.1,5.00,0.00,20.6,19.1,00.0,29.5,21.9,10.6,0001.0,0019.41,0006.06,0004.78
